www.pogodaiklimat.ru

Погода и климат >> Архив погоды >> Великобритания >> Аэропорт West Freugh


ПОГОДА в Аэропорту West Freugh

  • Прогноз погоды в Аэропорту West Freugh
  • Монитор погоды в Аэропорту West Freugh

АРХИВ ПОГОДЫ в Аэропорту West Freugh

Время (UTC), дата Ветер
(напр.,м/с)
 
Видим.   Явления Облачность Т
(С)
Тd
(С)
f
(%)
Тe
(С)
Тes
(С)
Комфортность P
(гПа)
Po
(гПа)
Тmin
(С)
Tmax
(С)
R
(мм)
R24
(мм)
S
(см)
01 9.06 З 1 40 км в посл. час дождь н/о +9.9 +9.2 95 +9 +9 1014.8 1013.4
02 9.06 ЮЗ 4 40 км н/о +9.0 +8.1 94 +6 +6 1014.9 1013.6
03 9.06 ЮЗ 4 35 км н/о +8.9 +8.1 95 +6 +6 1015.1 1013.7
04 9.06 ЮЗ 3 27 км н/о +7.6 +6.8 95 +5 +5 1015.3 1014.0
05 9.06 ЮЗ 3 35 км н/о +8.3 +7.7 96 +6 +6 1015.5 1014.2
06 9.06 ЮЗ 4 28 км н/о +9.6 +8.5 93 +7 +7 1015.9 1014.5 +7.4 1
07 9.06 ЮЗ 5 35 км н/о +10.2 +8.3 88 +7 +7 1016.2 1014.8
08 9.06 ЮЗ 5 35 км н/о +11.4 +8.8 84 +9 +9 1016.7 1015.4
09 9.06 ЮЗ 6 40 км н/о +12.1 +8.6 79 +9 +9 1017.0 1015.7
10 9.06 ЮЗ 6 45 км н/о +12.1 +7.5 73 +10 +10 1017.1 1015.8
11 9.06 Ю 6 50 км н/о +14.1 +8.7 70 +12 +12 1017.2 1015.9
12 9.06 Ю 7 40 км н/о +14.9 +10.0 72 +13 +13 1017.4 1016.0
13 9.06 ЮЗ 8 30 км в посл. час дождь н/о +14.5 +9.1 70 +12 +12 1017.5 1016.2
14 9.06 Ю 8 40 км н/о +14.6 +8.7 68 +12 +12 1017.4 1016.1
15 9.06 Ю 8 30 км н/о +13.9 +9.5 75 +11 +11 1017.5 1016.2
16 9.06 ЮЗ 6 35 км н/о +13.5 +7.6 67 +11 +11 1017.6 1016.3
17 9.06 ЮЗ 6 35 км н/о +12.6 +8.7 77 +10 +10 1017.8 1016.4
18 9.06 Ю 4 40 км н/о +11.9 +8.3 79 +10 +10 1017.5 1016.1 +15.3 0.0
19 9.06 Ю 3 40 км н/о +12.0 +8.9 81 +11 +11 1017.6 1016.2
20 9.06 ЮЗ 1 35 км н/о +12.1 +7.7 74 +12 +12 1017.8 1016.5
21 9.06 Ю 1 35 км н/о +9.1 +6.7 85 +8 +8 1018.1 1016.7
22 9.06 В 1 25 км н/о +6.7 +5.4 91 +6 +6 1018.4 1017.0
23 9.06 В 2 19 км н/о +6.6 +5.8 95 +5 +5 1018.5 1017.2
00 10.06 С 2 14 км н/о +6.2 +5.6 96 +4 +4 1018.4 1017.1
01 10.06 С 2 13 км н/о +6.2 +5.8 97 +4 +4 1018.5 1017.1
02 10.06 штиль 0 5000 м дымка н/о +4.8 +4.3 97 +4 +4 1018.3 1016.9
03 10.06 В 1 5000 м в посл. час туман н/о +4.9 +4.6 98 +5 +5 1018.3 1016.9
04 10.06 С 2 11 км н/о +4.8 +4.5 98 +2 +2 1018.3 1016.9
05 10.06 С 1 16 км н/о +5.9 +5.6 98 +4 +4 1018.5 1017.1
06 10.06 СВ 1 16 км н/о +9.5 +9.3 99 +9 +9 1018.6 1017.3 +4.1
07 10.06 СВ 3 24 км н/о +11.0 +10.4 96 +9 +9 1018.9 1017.6
08 10.06 В 1 30 км н/о +12.8 +9.6 81 +13 +13 1019.3 1018.0
09 10.06 СВ 2 50 км н/о +13.1 +7.9 71 +13 +13 1019.5 1018.2
10 10.06 Ю 2 40 км н/о +15.1 +8.9 66 +15 +15 1019.6 1018.3
11 10.06 СЗ 4 29 км в посл. час дождь н/о +14.0 +11.8 87 +13 +13 1019.9 1018.5
12 10.06 СЗ 6 40 км н/о +14.8 +9.5 71 +13 +13 1019.7 1018.4 1
13 10.06 СЗ 6 50 км н/о +15.2 +9.7 70 +14 +14 1019.6 1018.2
14 10.06 СЗ 6 19 км слаб. ливневой дождь н/о +13.4 +7.7 68 +11 +11 1019.5 1018.2
15 10.06 СЗ 7 30 км в посл. час дождь н/о +15.4 +8.8 65 +14 +14 1019.4 1018.1
16 10.06 СЗ 7 35 км н/о +16.0 +8.5 61 +15 +15 1019.3 1018.0
17 10.06 СЗ 7 45 км н/о +15.5 +8.7 64 +14 +14 1019.5 1018.2
18 10.06 СЗ 6 40 км н/о +15.0 +9.1 68 +13 +13 1019.7 1018.4 +16.5 1
19 10.06 СЗ 6 45 км н/о +15.2 +9.2 67 +14 +14 1020.1 1018.7
20 10.06 С 4 25 км ливневой дождь н/о +11.7 +9.6 87 +9 +9 1020.7 1019.4
21 10.06 С 2 45 км в посл. час дождь н/о +11.2 +9.4 89 +10 +10 1021.4 1020.1
22 10.06 СВ 2 30 км н/о +10.0 +8.8 92 +9 +9 1021.5 1020.1
23 10.06 СЗ 2 40 км н/о +9.1 +7.8 92 +7 +7 1021.4 1020.0
00 11.06 СВ 3 50 км н/о +8.5 +7.1 91 +6 +6 1021.8 1020.5 2
01 11.06 СЗ 2 45 км н/о +8.5 +7.6 94 +7 +7 1022.1 1020.7
02 11.06 СЗ 2 45 км н/о +8.0 +6.9 93 +6 +6 1021.8 1020.5
03 11.06 З 1 29 км н/о +7.1 +6.2 94 +6 +6 1021.8 1020.4
04 11.06 В 2 12 км дым н/о +4.8 +4.0 95 +2 +2 1022.0 1020.6
05 11.06 С 2 40 км н/о +5.9 +5.4 97 +4 +4 1022.0 1020.7
06 11.06 С 2 45 км н/о +9.4 +7.8 90 +8 +8 1022.3 1021.0 +4.7 2
07 11.06 С 2 45 км н/о +11.0 +7.3 78 +10 +10 1022.4 1021.1
08 11.06 С 3 40 км н/о +13.4 +9.3 76 +12 +12 1022.0 1020.6
09 11.06 СВ 6 45 км н/о +14.5 +8.8 69 +13 +13 1021.8 1020.4
10 11.06 СВ 5 40 км н/о +14.7 +7.9 64 +13 +13 1021.7 1020.4
11 11.06 СВ 6 45 км н/о +14.2 +6.9 61 +12 +12 1021.7 1020.4
12 11.06 СВ 5 45 км н/о +14.1 +8.0 67 +13 +13 1021.7 1020.4
13 11.06 С 5 50 км н/о +14.0 +7.6 65 +12 +12 1021.5 1020.2
14 11.06 СВ 6 50 км н/о +13.7 +6.9 63 +12 +12 1021.5 1020.2
15 11.06 С 6 50 км н/о +14.3 +7.1 62 +12 +12 1021.3 1019.9
16 11.06 С 7 45 км н/о +14.8 +6.8 59 +13 +13 1021.1 1019.8
17 11.06 СВ 5 50 км н/о +14.6 +6.3 57 +13 +13 1020.7 1019.4
18 11.06 СЗ 6 40 км н/о +14.7 +8.4 66 +13 +13 1020.3 1019.0 +16.0
19 11.06 С 5 45 км н/о +13.7 +7.2 65 +12 +12 1020.5 1019.1
20 11.06 С 4 50 км н/о +13.4 +7.8 69 +12 +12 1020.5 1019.2
21 11.06 С 4 50 км н/о +12.7 +7.9 73 +11 +11 1020.5 1019.2
22 11.06 С 4 45 км н/о +12.0 +8.3 78 +10 +10 1020.4 1019.0
23 11.06 С 2 45 км н/о +11.6 +8.2 80 +10 +10 1020.2 1018.9
00 12.06 С 3 50 км н/о +11.6 +8.3 80 +10 +10 1019.6 1018.3
01 12.06 СВ 4 50 км н/о +11.2 +8.1 81 +9 +9 1019.2 1017.9
02 12.06 СВ 6 50 км н/о +10.9 +7.2 78 +8 +8 1018.9 1017.5
03 12.06 С 4 50 км н/о +10.2 +6.9 80 +8 +8 1018.2 1016.9
04 12.06 С 5 45 км н/о +10.2 +6.2 76 +7 +7 1017.7 1016.3
05 12.06 С 5 45 км н/о +10.2 +6.3 77 +7 +7 1017.8 1016.4
06 12.06 С 7 45 км в посл. час дождь н/о +10.4 +5.9 74 +7 +7 1017.2 1015.8 +9.9 0.0
07 12.06 СЗ 4 45 км слаб. ливневой дождь н/о +10.0 +6.1 77 +7 +7 1017.3 1015.9
08 12.06 СЗ 5 45 км слаб. ливневой дождь н/о +10.3 +6.3 76 +7 +7 1016.7 1015.4
09 12.06 СЗ 3 50 км в посл. час дождь н/о +10.3 +6.8 79 +8 +8 1016.6 1015.2
10 12.06 СЗ 4 50 км н/о +10.8 +6.9 77 +9 +9 1016.7 1015.3
11 12.06 С 6 35 км н/о +12.5 +7.4 71 +10 +10 1015.8 1014.5
12 12.06 С 5 45 км н/о +13.8 +8.2 69 +12 +12 1015.2 1013.9 0.0
13 12.06 СЗ 5 45 км н/о +13.2 +9.1 76 +11 +11 1014.8 1013.5
14 12.06 С 8 45 км в посл. час дождь н/о +13.7 +7.3 65 +11 +11 1014.3 1013.0
15 12.06 С 5 45 км н/о +13.2 +7.6 69 +11 +11 1014.0 1012.7
16 12.06 С 5 45 км н/о +13.4 +7.9 69 +11 +11 1013.2 1011.9
17 12.06 СЗ 5 45 км н/о +12.9 +8.1 73 +11 +11 1012.8 1011.5
18 12.06 С 5 50 км н/о +12.8 +8.3 74 +11 +11 1012.4 1011.0 +13.9 0.0
19 12.06 С 4 50 км н/о +12.5 +8.7 78 +11 +11 1012.0 1010.6
20 12.06 С 5 50 км н/о +12.7 +8.6 76 +10 +10 1011.8 1010.5
21 12.06 С 5 50 км н/о +12.6 +8.6 77 +11 +11 1011.4 1010.1
22 12.06 С 4 50 км н/о +12.1 +8.3 78 +10 +10 1011.1 1009.7
23 12.06 С 5 50 км н/о +11.9 +7.9 76 +9 +9 1010.6 1009.2
00 13.06 С 5 50 км н/о +11.8 +7.8 76 +9 +9 1010.0 1008.7
01 13.06 С 5 50 км в посл. час дождь н/о +11.1 +8.2 82 +8 +8 1009.6 1008.3
02 13.06 СЗ 4 13 км ливневой дождь н/о +10.2 +8.3 88 +8 +8 1009.2 1007.8
03 13.06 С 6 25 км слаб. дождь н/о +9.7 +8.2 90 +6 +6 1008.4 1007.1
04 13.06 СЗ 6 14 км дождь н/о +9.5 +8.0 90 +6 +6 1008.1 1006.8
05 13.06 СЗ 5 18 км слаб. дождь н/о +9.7 +8.1 90 +6 +6 1008.0 1006.6
06 13.06 СЗ 4 28 км слаб. дождь н/о +9.6 +7.7 88 +7 +7 1007.6 1006.3 +9.4 5
07 13.06 С 3 50 км слаб. дождь н/о +9.8 +7.7 87 +7 +7 1006.9 1005.6
08 13.06 С 4 40 км в посл. час дождь н/о +10.4 +7.4 82 +8 +8 1006.4 1005.0
09 13.06 С 4 50 км н/о +10.4 +7.3 81 +8 +8 1006.0 1004.7
10 13.06 С 3 45 км н/о +12.3 +7.9 74 +11 +11 1005.4 1004.1
11 13.06 СЗ 3 50 км н/о +11.8 +7.6 75 +10 +10 1005.1 1003.8
12 13.06 СЗ 4 45 км н/о +10.6 +6.6 76 +8 +8 1004.9 1003.5 0.2
13 13.06 СЗ 2 45 км н/о +11.1 +7.1 76 +10 +10 1004.3 1003.0
14 13.06 З 4 45 км н/о +11.1 +7.7 80 +9 +9 1004.1 1002.7
15 13.06 СЗ 5 35 км н/о +10.9 +6.4 74 +8 +8 1003.6 1002.3
16 13.06 З 4 35 км н/о +10.5 +7.2 80 +8 +8 1003.4 1002.1
17 13.06 З 5 35 км н/о +11.3 +7.1 75 +9 +9 1003.1 1001.7
18 13.06 З 5 35 км н/о +10.2 +6.6 78 +7 +7 1002.9 1001.6 +12.7 0.2
19 13.06 З 5 30 км н/о +11.3 +5.5 67 +9 +9 1002.8 1001.5
20 13.06 З 4 30 км н/о +9.7 +5.8 77 +7 +7 1002.9 1001.6
21 13.06 З 3 40 км н/о +9.1 +5.9 80 +7 +7 1003.4 1002.1
22 13.06 ЮЗ 3 40 км н/о +8.8 +5.9 82 +6 +6 1003.6 1002.2
23 13.06 ЮЗ 2 30 км в посл. час дождь н/о +8.3 +6.8 90 +6 +6 1003.6 1002.2
00 14.06 ЮЗ 4 50 км н/о +8.3 +6.5 88 +5 +5 1003.3 1002.0 0.2
01 14.06 ЮЗ 3 40 км н/о +7.3 +5.9 91 +4 +4 1003.3 1001.9
02 14.06 ЮЗ 2 45 км н/о +7.4 +5.7 89 +5 +5 1003.1 1001.8
03 14.06 ЮЗ 3 30 км н/о +6.5 +5.1 91 +4 +4 1002.9 1001.6
04 14.06 ЮЗ 3 30 км н/о +4.6 +3.4 92 +1 +1 1003.3 1001.9
05 14.06 штиль 0 35 км н/о +5.7 +4.9 95 +5 +5 1003.6 1002.2
06 14.06 ЮВ 1 23 км н/о +8.1 +7.2 94 +7 +7 1003.7 1002.3 +4.5 0.2
07 14.06 Ю 3 45 км н/о +9.3 +6.2 81 +7 +7 1003.8 1002.4
08 14.06 Ю 4 45 км н/о +11.1 +6.1 71 +9 +9 1004.1 1002.8
09 14.06 Ю 5 45 км н/о +12.0 +7.2 72 +10 +10 1004.5 1003.2
10 14.06 Ю 5 45 км н/о +13.1 +7.8 70 +11 +11 1004.6 1003.2
11 14.06 Ю 6 35 км н/о +12.1 +6.6 69 +10 +10 1005.2 1003.9
12 14.06 Ю 6 40 км н/о +12.5 +6.8 68 +10 +10 1005.5 1004.2
13 14.06 ЮВ 6 45 км н/о +13.7 +7.8 68 +12 +12 1005.6 1004.3
14 14.06 ЮВ 7 40 км н/о +13.2 +8.1 71 +11 +11 1005.7 1004.4
15 14.06 ЮВ 8 30 км н/о +12.8 +8.2 74 +10 +10 1005.7 1004.4
16 14.06 Ю 7 35 км н/о +12.2 +8.1 76 +9 +9 1005.9 1004.6
17 14.06 ЮВ 7 13 км слаб. дождь н/о +11.4 +9.0 85 +8 +8 1006.1 1004.8
18 14.06 ЮВ 7 13 км слаб. дождь н/о +10.8 +9.7 93 +7 +7 1006.2 1004.9 +14.3 1
19 14.06 ЮВ 7 25 км в посл. час дождь н/о +11.3 +9.7 90 +8 +8 1006.0 1004.6
20 14.06 ЮВ 8 14 км н/о +12.0 +10.2 89 +9 +9 1006.1 1004.7
21 14.06 ЮВ 7 17 км н/о +11.8 +10.3 91 +9 +9 1006.4 1005.1
22 14.06 ЮВ 7 9000 м ливневой дождь н/о +11.5 +10.5 94 +8 +8 1006.4 1005.1
23 14.06 ЮВ 7 8000 м дождь н/о +11.2 +10.6 96 +8 +8 1006.3 1004.9
00 15.06 Ю 8
{14}
13 км слаб. морось с дождем н/о +11.6 +10.7 94 +8 +8 1006.3 1005.0 3
01 15.06 ЮВ 7 10 км слаб. ливневой дождь н/о +11.4 +10.5 94 +8 +8 1006.3 1005.0
02 15.06 ЮВ 7 9000 м дождь н/о +11.2 +10.5 95 +8 +8 1006.3 1004.9
03 15.06 ЮВ 9 10 км слаб. дождь н/о +11.3 +10.4 94 +7 +7 1006.5 1005.2
04 15.06 Ю 6 9000 м слаб. дождь н/о +10.8 +10.1 95 +8 +8 1006.5 1005.1
05 15.06 ЮВ 7 10 км слаб. дождь н/о +11.0 +10.2 95 +7 +7 1006.4 1005.1
06 15.06 ЮВ 7 12 км слаб. морось н/о +11.2 +10.4 95 +8 +8 1006.4 1005.1 +10.6 8
07 15.06 ЮВ 6 13 км слаб. морось с дождем н/о +11.7 +10.9 95 +9 +9 1006.6 1005.2
08 15.06 В 5 13 км слаб. дождь н/о +12.0 +11.1 94 +10 +10 1006.4 1005.1
09 15.06 ЮВ 7 15 км в посл. час дождь н/о +12.5 +11.3 92 +10 +10 1006.4 1005.1
10 15.06 В 6 19 км в посл. час дождь н/о +12.2 +10.7 91 +9 +9 1006.3 1004.9
11 15.06 ЮВ 9 15 км н/о +13.8 +11.2 84 +11 +11 1006.1 1004.8
12 15.06 ЮВ 10
{13}
16 км н/о +13.5 +10.8 84 +10 +10 1006.1 1004.8 1
13 15.06 ЮВ 8
{14}
15 км н/о +13.5 +11.2 86 +11 +11 1006.1 1004.8
14 15.06 Ю 8
{13}
17 км н/о +14.8 +12.3 85 +13 +13 1006.1 1004.8
15 15.06 Ю 8 40 км н/о +13.4 +10.4 82 +11 +11 1006.9 1005.6
16 15.06 Ю 7 50 км н/о +13.1 +10.4 84 +10 +10 1007.7 1006.3
17 15.06 Ю 7 30 км н/о +13.0 +10.1 83 +10 +10 1008.1 1006.8
18 15.06 Ю 7 35 км н/о +12.9 +9.4 79 +10 +10 1008.4 1007.1 +15.2 1
19 15.06 Ю 6 30 км н/о +12.4 +9.6 83 +10 +10 1008.4 1007.1
20 15.06 Ю 3 20 км н/о +11.7 +9.4 86 +10 +10 1008.4 1007.1
21 15.06 ЮВ 2 17 км н/о +11.0 +9.1 88 +10 +10 1008.6 1007.3
22 15.06 Ю 3 16 км н/о +10.9 +9.4 90 +9 +9 1008.7 1007.4
23 15.06 В 2 15 км н/о +10.0 +8.9 93 +8 +8 1008.8 1007.5
00 16.06 В 2 15 км н/о +9.3 +8.3 93 +7 +7 1008.9 1007.5

 

Местоположение метеостанции Аэропорт West Freugh (Великобритания): широта 54.85 долгота -4.95 высота над уровнем моря 10 м.

В архиве по умолчанию представлена погода в Аэропорту West Freugh за последнюю неделю. Архивные данные за месяц целиком и за предыдущие месяцы, начиная с января 2011 года, Вы можете получить, выбрав интересующий диапазон дат из раскрывающегося списка и нажав кнопку "Ввод!".


*Определитесь, кто Вы:
робот инопланетянин человек

Внимание! Время в таблицах - всемирное. Для получения местного времени необходимо прибавить поправку, которая равна 0 ч.

Смотрите также архив погоды в соседних городах и на ближайших метеорологических станциях:

Погода в Дандреннане (Великобритания) (61 км)
Погода в Прествике (Великобритания) (78 км)
Погода в Макрайханише (Великобритания) (80 км)
Погода в Белфасте (Великобритания) (85 км)
Погода в Баллипатрик Форест (Великобритания) (86 км)
Погода на Острове Мэн (Великобритания) (88 км)
Погода на Мысе Сент-Бис (Великобритания) (94 км)
Погода в Портгленоне (Великобритания) (96 км)
Погода в Друмалбине (Великобритания) (115 км)
Погода в Кесвике (Великобритания) (117 км)

Пояснения к столбцам:

Ветер - указаны скорость ветра в м/с - средняя за 10 мин, порывы в срок и между сроками (в фигурных скобках) и направление, откуда дует ветер: С - северный, СВ - северо-восточный, В - восточный, ЮВ - юго-восточный, Ю - южный, ЮЗ - юго-западный, З - западный, СЗ - северо-западный.
Видимость - горизонтальная дальность видимости в метрах или километрах. При видимости от 1 до 10 км при отсутствии осадков обычно наблюдается дымка, при ухудшении видимости до 1 км и менее - туман. В сухую погоду видимость может ухудшаться дымом, пылью или мглою.
Явления - указаны атмосферные явления, наблюдавшиеся в срок или в последний час перед сроком; фигурными скобками обозначены явления, наблюдавшиеся между сроками (за 1-3 часа до срока); квадратными скобками обозначены град или гололедные отложения с указанием их диаметра в мм.
Облачность - указаны через наклонную черту общая и нижняя облачность в баллах и высота нижней границы облаков в метрах; квадратными скобками обозначены формы облаков: Ci - перистые, Cs - перисто-слоистые, Cc - перисто-кучевые, Ac - высококучевые, As - высокослоистые, Sc - слоисто-кучевые, Ns - слоисто-дождевые, Cu - кучевые, Cb - кучево-дождевые. Подробнее классификацию облаков см. в Атласе облаков (PDF).
T - Температура воздуха - температура, измеренная на высоте 2 м над землей.
Td - Температура точки росы - температура, при понижении до которой содержащийся в воздухе водяной пар достигнет насыщения.
f - Относительная влажность воздуха - влажноcть воздуха, измеренная на высоте 2 м над землей.
Te - Эффективная температура - температура, которую ощущает одетый по сезону человек в тени. Характеристика душности погоды. При расчете учитывается влияние влажности воздуха и скорости ветра на теплоощущения человека.
Tes - Эффективная температура на солнце - температура, которую ощущает человек, с поправкой на солнечный нагрев. Характеристика знойности погоды. Зависит от высоты солнца над горизонтом, облачности и скорости ветра. Ночью, в пасмурную погоду, а также при ветре 12 м/с и более поправка равна нулю.
P - Атмосферное давление - приведенное к уровню моря атмосферное давление.
Po - Атмосферное давление - измеренное на уровне метеостанции атмосферное давление.
Tmin - Минимальная температура - минимум температуры воздуха на высоте 2 м над землей.
Tmax - Максимальная температура - максимум температуры воздуха на высоте 2 м над землей.
R - Количество осадков - Количество выпавших осадков за период времени, мм. При наведении курсора мыши на число - период времени, за который выпало указанное количество осадков.
R24 - Количество осадков - Количество выпавших осадков за 24 часа, мм.
S - Снежный покров - Высота снежного покрова, см. При наведении курсора мыши на число - состояние снежного покрова и степень покрытия местности в баллах.